Find IRNSS-R1A

NORAD ID: 39199 Int'l Des: 2013-034 Owner: ISRO Country: IN operational
HEOCIRCULARGSO

リアルタイム位置

3D地球を読み込み中...

IRNSS-R1Aについて

説明を読み込み中...

次回通過

Passes for default location (London). Set your location on the main map for personalized predictions.

高度履歴

Loading altitude history...

軌道要素

1 39199U 13034A 26105.95238771 .00000094 00000-0 00000-0 0 9991
2 39199 35.5907 64.7578 0017028 188.2568 349.0139 1.00269258 46748
Epoch: Apr 15, 2026 • Age: 29 hours

現在のステータス

高度 35776.6 km
速度 3.08 km/s
衛星直下点 -35.06°S, 53.14°E
打ち上げ日 Jul 1, 2013
運用期間 12.7 years
タイプ other

技術仕様

分類 Payload
質量 1425.00 kg
乾燥質量 614.00 kg
総質量 1425.00 kg
長さ 1.50 m
直径 1.50 m
スパン 10.00 m
形状 Box + 2 Pan
製造者 ISAC
バスタイプ I1K
フェーズステータス In Orbit
所有者/国 ISRO/IN

Most Searched